DECAYED

DELTA 1 DEB, 21343 (Decayed)

Orbit data source: Space-Track

DELTA 1 DEB, 21343 was space debris in SSO originally from a launch on Thu, 12 Jun 1975 UTC launched from the Air Force Western Test Range (AFWTR). Debris objects in space refer to the collection of defunct objects orbiting the Earth. Examples of debris include non-operational satellites, rocket bodies, and fragments generated from explosions, collisions, or faulty payload assembly.

Not visible in the next 10 days
Identifier
21343, 1975-052BM
Orbit
Decayed
Country
Flag of USUS
Related business
Manufacturer
Unknown
Mission
Decayed spacecraft
Bus & Motor
Unknown
Mass
Unknown
Launch date (UTC)
1975-06-12 (51 years ago)
Launch vehicle
Unknown
Launch site
Air Force Western Test Range (AFWTR)
Object type
Payload
Rocket body
Debris
Shape & HBR
Unknown shape, 0.1 m
Radar Cross Section
Medium (>0.1 m² and <1 m²)

Expand to show TLE details & history
Last TLE update: 1 year ago

TLE from 1 year ago
0 DELTA 1 DEB
1 21343U 75052BM  25012.96515718  .14265044  42869+0  82121-1 0  9993
2 21343  98.8988 163.5543 0028140 346.3278  13.7222 15.86257039700549
Epoch: 2025-01-12T23:09Z
TLE epoch observation values (Epoch: 2025-01-12T23:09:49.580Z)
Latitude
-0.00007°
Longitude
63.40473°
Altitude
297.627 km
Speed
7.74 km/s
True Right ascension
10h 54m 13s
True Declination
0° 00' 00"
Sunlit
Object was in full shadow at epoch
Visualization orbit readout
Latitude
Unknown
Longitude
Unknown
Altitude
Unknown
Speed
Unknown
Apparent Right ascension
Unknown
Apparent Declination
Unknown
Sunlit
N/A
Visualization observer readout
Local Sidereal Time
09:42:33
Azimuth
Unknown
Elevation
Unknown
Doppler factor
Unknown
Orbital elements
Apogee altitude
328.557 km
Perigee altitude
290.918 km
Semi-major axis
6,687.875 km
Eccentricity
0.00281
Inclination
98.8988°
RAAN
163.5543°
Arg. of periapsis
346.3278°
True anomaly
13.79895°
Mean anomaly
13.7222°
Eccentric anomaly
13.76055°
Mean motion
3.96836 °/min
Orbital period
90.72 mins
BSTAR
0.082121
Loading maneuver chart data...
Computing Atmospheric mass density...

Documentation

Showing up to 5 results
|